"2010-09-01 00:00:00",121261,3.695,130.4,4.345,0.202,19.66,108.53,21.12,22,25.5,0,111,13.16,21.95,92.4
"2010-09-01 00:00:30",121262,4.06,128.8,9.42,0.694,19.7,108.5247,21.11,21.98,25.53,0,111,13.16,21.93,90.8
"2010-09-01 00:01:00",121263,5.351,114.4,4.623,0.393,19.78,108.5151,21.08,21.99,25.58,0,111,13.16,21.91,76.4
"2010-09-01 00:01:30",121264,4.348,106.6,4.161,0.274,19.85,108.5249,21.11,21.98,25.53,0,111,13.16,21.93,68.6
"2010-09-01 00:02:00",121265,3.921,104.7,4.168,0.226,19.78,108.53,21.12,21.97,25.3,0,111,13.16,21.95,66.7
"2010-09-01 00:02:30",121266,3.861,102.6,2.147,0.164,19.74,108.5238,21.1,21.97,25.22,0,111,13.16,21.93,64.6
"2010-09-01 00:03:00",121267,3.762,104.9,2.597,0.107,19.71,108.5096,21.07,21.97,25.17,0,111,13.16,21.89,66.9
"2010-09-01 00:03:30",121268,4.362,96.7,2.975,0.692,19.76,108.5011,21.05,21.95,25.31,0,111,13.16,21.87,58.7
"2010-09-01 00:04:00",121269,4,94.2,3.638,0.367,19.76,108.4996,21.04,21.96,25.28,0,111,13.16,21.87,56.2
"2010-09-01 00:04:30",121270,3.272,97.1,9.15,0.463,19.76,108.4993,21.04,21.94,25.33,0,111,13.16,21.87,59.1
"2010-09-01 00:05:00",121271,2.472,124.2,7.257,0.217,19.71,108.5009,21.04,21.95,25.49,0,111,13.16,21.87,86.2
"2010-09-01 00:05:30",121272,2.85,119,8.8,0.274,19.65,108.4996,21.04,21.94,25.61,0,111,13.16,21.87,81.0
"2010-09-01 00:06:00",121273,3.241,102.9,9.85,0.509,19.69,108.5021,21.05,21.93,25.39,0,111,13.16,21.87,64.9
"2010-09-01 00:06:30",121274,3.642,104.2,6.344,0.262,19.68,108.4969,21.03,21.91,25.46,0,111,13.16,21.86,66.2
"2010-09-01 00:07:00",121275,2.768,113.3,5.324,0.252,19.71,108.4955,21.03,21.9,25.49,0,111,13.16,21.86,75.3
"2010-09-01 00:07:30",121276,2.516,120.9,4.046,0.34,19.69,108.5002,21.04,21.89,25.5,0,111,13.16,21.87,82.9
"2010-09-01 00:08:00",121277,2.643,123.4,3.169,0.274,19.71,108.5037,21.05,21.9,25.38,0,111,13.16,21.88,85.4
"2010-09-01 00:08:30",121278,3.052,127.1,2.074,0.151,19.69,108.5043,21.05,21.89,25.35,0,111,13.16,21.88,89.1
"2010-09-01 00:09:00",121279,2.859,109.6,9.2,0.135,19.7,108.5076,21.06,21.9,25.46,0,111,13.16,21.89,71.6
"2010-09-01 00:09:30",121280,2.586,108.2,5.979,0.2,19.68,108.4993,21.04,21.89,25.41,0,111,13.16,21.87,70.2
"2010-09-01 00:10:00",121281,2.766,115.4,7.27,0.176,19.71,108.4994,21.04,21.89,25.21,0,111,13.16,21.87,77.4
"2010-09-01 00:10:30",121282,2.434,122.3,2.433,0.136,19.71,108.5041,21.05,21.9,25.08,0,111,13.16,21.88,84.3
"2010-09-01 00:11:00",121283,2.695,116.1,3.485,0.215,19.75,108.511,21.07,21.89,25.11,0,111,13.16,21.90,78.1
"2010-09-01 00:11:30",121284,2.855,118.1,3.746,0.167,19.71,108.5144,21.08,21.91,25.17,0,111,13.16,21.91,80.1
"2010-09-01 00:12:00",121285,3.233,119.6,2.545,0.188,19.64,108.5052,21.06,21.91,25.36,0,111,13.16,21.88,81.6
"2010-09-01 00:12:30",121286,3.485,115.2,4.326,0.117,19.6,108.4985,21.04,21.9,25.43,0,111,13.16,21.86,77.2
"2010-09-01 00:13:00",121287,2.993,115.8,5.291,0.196,19.63,108.4988,21.04,21.87,25.46,0,110.9,13.16,21.86,77.8
"2010-09-01 00:13:30",121288,2.925,121.5,3.195,0.365,19.67,108.4893,21.02,21.87,25.45,0,110.9,13.16,21.84,83.5
"2010-09-01 00:14:00",121289,2.431,110.5,4.212,0.259,19.66,108.4744,20.98,21.85,25.43,0,110.9,13.16,21.80,72.5
"2010-09-01 00:14:30",121290,3.163,111.9,3.654,0.149,19.64,108.4663,20.96,21.86,25.43,0,110.9,13.16,21.78,73.9
"2010-09-01 00:15:00",121291,2.678,105.9,4.141,0.174,19.68,108.4654,20.95,21.84,25.45,0,110.9,13.17,21.78,67.9
"2010-09-01 00:15:30",121292,2.896,113.5,2.021,0.09,19.62,108.4654,20.95,21.83,25.38,0,110.9,13.17,21.78,75.5
"2010-09-01 00:16:00",121293,3.148,113.6,4.47,0.086,19.6,108.4654,20.95,21.82,25.3,0,111,13.17,21.78,75.6
"2010-09-01 00:16:30",121294,3.294,118.3,2.371,0.118,19.62,108.4654,20.95,21.82,25.54,0,110.9,13.17,21.78,80.3
"2010-09-01 00:17:00",121295,3.227,119.1,3.65,0.152,19.59,108.4654,20.95,21.83,25.57,0,110.9,13.17,21.78,81.1
"2010-09-01 00:17:30",121296,2.962,117.8,5.275,0.175,19.64,108.4654,20.95,21.83,25.53,0,110.9,13.17,21.78,79.8
"2010-09-01 00:18:00",121297,3.575,119,3.155,0.389,19.59,108.4654,20.95,21.82,25.46,0,110.9,13.18,21.78,81.0
"2010-09-01 00:18:30",121298,3.917,114.5,1.808,0.108,19.6,108.4618,20.94,21.82,25.47,0,110.9,13.18,21.77,76.5
"2010-09-01 00:19:00",121299,3.689,113.9,2.522,0.108,19.63,108.4477,20.91,21.8,25.44,0,110.9,13.18,21.73,75.9
"2010-09-01 00:19:30",121300,3.484,111.1,2.452,0.094,19.67,108.4429,20.9,21.8,25.44,0,110.9,13.18,21.72,73.1
"2010-09-01 00:20:00",121301,3.566,114.5,3.174,0.135,19.67,108.4401,20.89,21.8,25.41,0,110.9,13.18,21.71,76.5
"2010-09-01 00:20:30",121302,3.599,116.6,2.379,0.162,19.65,108.4396,20.89,21.8,25.38,0,110.9,13.18,21.71,78.6
"2010-09-01 00:21:00",121303,3.678,115.8,3.142,0.129,19.65,108.4384,20.88,21.8,25.42,0,110.9,13.18,21.71,77.8
"2010-09-01 00:21:30",121304,3.486,122.4,2.564,0.135,19.68,108.4365,20.88,21.81,25.4,0,110.9,13.18,21.70,84.4
"2010-09-01 00:22:00",121305,3.811,112,2.287,0.167,19.64,108.4334,20.87,21.8,25.42,0,110.9,13.18,21.70,74.0
"2010-09-01 00:22:30",121306,3.915,114.4,4.658,0.227,19.63,108.4344,20.87,21.8,25.53,0,110.9,13.18,21.70,76.4
"2010-09-01 00:23:00",121307,4.408,117,2.429,0.15,19.6,108.4354,20.88,21.78,25.58,0,110.9,13.18,21.70,79.0
"2010-09-01 00:23:30",121308,4.17,114.3,3.432,0.152,19.55,108.4372,20.88,21.8,25.62,0,110.9,13.18,21.71,76.3
"2010-09-01 00:24:00",121309,4.151,113.4,4.035,0.106,19.62,108.4408,20.89,21.79,25.55,0,110.9,13.18,21.72,75.4
"2010-09-01 00:24:30",121310,4.059,112.3,2.251,0.125,19.54,108.4424,20.89,21.79,25.65,0,110.9,13.18,21.72,74.3
"2010-09-01 00:25:00",121311,4.361,121.5,3.802,0.246,19.61,108.4479,20.91,21.78,25.66,0,110.9,13.18,21.73,83.5
"2010-09-01 00:25:30",121312,4.377,127.6,2.017,0.128,19.55,108.4533,20.92,21.8,25.64,0,110.9,13.18,21.75,89.6
"2010-09-01 00:26:00",121313,4.582,124.4,2.985,0.201,19.54,108.4546,20.93,21.78,25.68,0,110.9,13.18,21.75,86.4
"2010-09-01 00:26:30",121314,5.132,118.8,3.278,0.328,19.55,108.4406,20.89,21.78,25.74,0,110.9,13.18,21.72,80.8
"2010-09-01 00:27:00",121315,5.678,111.9,2.906,0.157,19.51,108.4341,20.87,21.77,25.73,0,110.9,13.18,21.70,73.9
"2010-09-01 00:27:30",121316,5.307,115.7,5.014,0.192,19.48,108.4262,20.85,21.76,25.79,0,110.9,13.18,21.68,77.7
"2010-09-01 00:28:00",121317,5.652,125.6,1.911,0.153,19.5,108.4251,20.85,21.75,25.88,0,110.9,13.18,21.68,87.6
"2010-09-01 00:28:30",121318,5.43,124.8,1.55,0.184,19.49,108.4254,20.85,21.76,25.75,0,110.9,13.17,21.68,86.8
"2010-09-01 00:29:00",121319,5.588,118.9,2.594,0.131,19.46,108.426,20.85,21.73,25.74,0,110.9,13.17,21.68,80.9
"2010-09-01 00:29:30",121320,5.538,116.5,2.351,0.228,19.4,108.4254,20.85,21.72,25.74,0,110.9,13.17,21.68,78.5
"2010-09-01 00:30:00",121321,5.243,113.8,2.072,0.188,19.32,108.4258,20.85,21.72,25.77,0,110.9,13.17,21.68,75.8
"2010-09-01 00:30:30",121322,4.908,115.7,2.441,0.122,19.33,108.4245,20.85,21.71,25.71,0,110.9,13.18,21.67,77.7
"2010-09-01 00:31:00",121323,4.743,115.1,3.301,0.17,19.29,108.4228,20.84,21.7,25.66,0,110.9,13.17,21.67,77.1
"2010-09-01 00:31:30",121324,4.742,110,1.813,0.112,19.18,108.4248,20.85,21.71,25.67,0,110.9,13.18,21.67,72.0
"2010-09-01 00:32:00",121325,4.51,112.4,3.439,0.097,19.3,108.4244,20.85,21.71,25.66,0,110.9,13.18,21.67,74.4
"2010-09-01 00:32:30",121326,4.224,116.4,1.653,0.15,19.21,108.4221,20.84,21.69,25.62,0,110.9,13.18,21.67,78.4
"2010-09-01 00:33:00",121327,4.223,112.7,2.783,0.117,19.1,108.4151,20.82,21.7,25.63,0,110.9,13.19,21.65,74.7
"2010-09-01 00:33:30",121328,3.868,113.6,5.281,0.156,19.09,108.4219,20.84,21.71,25.62,0,110.9,13.19,21.67,75.6
"2010-09-01 00:34:00",121329,4.23,112.2,3.669,0.13,19.08,108.4199,20.84,21.7,25.78,0,110.9,13.19,21.66,74.2
"2010-09-01 00:34:30",121330,3.972,110.7,2.23,0.231,19.05,108.4118,20.82,21.69,25.74,0,110.9,13.19,21.64,72.7
"2010-09-01 00:35:00",121331,4.207,113,1.994,0.157,19,108.4073,20.8,21.69,25.89,0,110.9,13.19,21.63,75.0
"2010-09-01 00:35:30",121332,4.435,116.1,1.432,0.174,19.04,108.4016,20.79,21.68,25.94,0,110.9,13.19,21.61,78.1
"2010-09-01 00:36:00",121333,4.38,113.6,1.198,0.224,19.02,108.4008,20.79,21.69,25.9,0,110.9,13.19,21.61,75.6
"2010-09-01 00:36:30",121334,4.495,115.2,2.615,0.146,19.02,108.4008,20.79,21.68,25.71,0,110.9,13.19,21.61,77.2
"2010-09-01 00:37:00",121335,4.452,115.9,2.537,0.136,19.04,108.4008,20.79,21.66,25.61,0,110.9,13.19,21.61,77.9
"2010-09-01 00:37:30",121336,4.373,115.1,2.101,0.098,19.09,108.4008,20.79,21.67,25.67,0,110.9,13.19,21.61,77.1
"2010-09-01 00:38:00",121337,4.627,117,1.471,0.166,19.06,108.4008,20.79,21.67,25.71,0,110.9,13.19,21.61,79.0
"2010-09-01 00:38:30",121338,4.869,120.4,2.527,0.097,18.98,108.4008,20.79,21.67,25.88,0,110.9,13.19,21.61,82.4
"2010-09-01 00:39:00",121339,4.847,119,3.897,0.142,18.96,108.4008,20.79,21.68,25.83,0,110.9,13.19,21.61,81.0
"2010-09-01 00:39:30",121340,5.044,116.1,2.435,0.156,18.98,108.4008,20.79,21.67,25.83,0,110.9,13.19,21.61,78.1
"2010-09-01 00:40:00",121341,5.08,117,1.561,0.174,18.99,108.4008,20.79,21.66,25.84,0,110.9,13.19,21.61,79.0
"2010-09-01 00:40:30",121342,5.242,119.1,1.37,0.102,19.04,108.4008,20.79,21.66,25.64,0,110.9,13.19,21.61,81.1
"2010-09-01 00:41:00",121343,5.171,119.2,1.003,0.076,19.05,108.4008,20.79,21.64,25.52,0,110.9,13.19,21.61,81.2
"2010-09-01 00:41:30",121344,4.857,120.3,0.91,0.144,19.11,108.4008,20.79,21.66,25.4,0,110.9,13.19,21.61,82.3
"2010-09-01 00:42:00",121345,4.724,120.2,0.834,0.063,19.12,108.4008,20.79,21.67,25.27,0,110.9,13.19,21.61,82.2
"2010-09-01 00:42:30",121346,4.703,116.7,2.467,0.091,19.14,108.4008,20.79,21.66,25.37,0,110.9,13.19,21.61,78.7
"2010-09-01 00:43:00",121347,4.592,115.2,1.395,0.119,19.13,108.4008,20.79,21.66,25.46,0,110.9,13.19,21.61,77.2
"2010-09-01 00:43:30",121348,4.194,118.5,1.539,0.212,19.09,108.4008,20.79,21.66,25.42,0,110.9,13.19,21.61,80.5
"2010-09-01 00:44:00",121349,3.98,119,1.057,0.066,19.1,108.4008,20.79,21.67,25.23,0,110.9,13.19,21.61,81.0
"2010-09-01 00:44:30",121350,3.775,117.2,1.237,0.056,19.05,108.4008,20.79,21.68,24.97,0,110.9,13.18,21.61,79.2
"2010-09-01 00:45:00",121351,3.637,115.1,2.742,0.107,19.08,108.4008,20.79,21.68,25.02,0,110.9,13.18,21.61,77.1
"2010-09-01 00:45:30",121352,3.588,109.9,1.828,0.109,19.09,108.4008,20.79,21.68,25.25,0,110.9,13.18,21.61,71.9
"2010-09-01 00:46:00",121353,3.529,112.1,2.232,0.129,19.14,108.4008,20.79,21.68,25.29,0,110.9,13.18,21.61,74.1
"2010-09-01 00:46:30",121354,3.493,109.4,1.414,0.085,19.04,108.4008,20.79,21.68,25.43,0,110.9,13.18,21.61,71.4
"2010-09-01 00:47:00",121355,3.572,111.2,1.721,0.162,19.19,108.4008,20.79,21.67,25.57,0,110.9,13.18,21.61,73.2
"2010-09-01 00:47:30",121356,4.154,104.4,2.85,0.128,19.26,108.4008,20.79,21.66,25.7,0,110.9,13.18,21.61,66.4
"2010-09-01 00:48:00",121357,4.696,108.9,3.661,0.245,19.36,108.4008,20.79,21.66,25.88,0,110.9,13.17,21.61,70.9
"2010-09-01 00:48:30",121358,3.834,101.1,6.359,0.244,19.42,108.4008,20.79,21.67,26.35,0,110.9,13.18,21.61,63.1
"2010-09-01 00:49:00",121359,4.408,105.7,2.817,0.365,19.44,108.4008,20.79,21.64,26.36,0,110.9,13.18,21.61,67.7
"2010-09-01 00:49:30",121360,4.194,111.5,5.864,0.29,19.42,108.3957,20.78,21.64,26.29,0,110.9,13.18,21.60,73.5
"2010-09-01 00:50:00",121361,4.382,106.5,5.358,0.195,19.43,108.3755,20.72,21.62,26.33,0,110.9,13.19,21.55,68.5
"2010-09-01 00:50:30",121362,4.124,112.3,3.327,0.229,19.52,108.3673,20.7,21.61,26.4,0,110.9,13.19,21.53,74.3
"2010-09-01 00:51:00",121363,4.019,111.2,5.961,0.345,19.51,108.3671,20.7,21.62,26.41,0,110.9,13.19,21.53,73.2
"2010-09-01 00:51:30",121364,3.441,110,2.551,0.233,19.49,108.3671,20.7,21.58,26.35,0,110.9,13.19,21.53,72.0
"2010-09-01 00:52:00",121365,3.892,108.7,3.864,0.294,19.57,108.3671,20.7,21.59,26.39,0,110.9,13.19,21.53,70.7
"2010-09-01 00:52:30",121366,3.969,114,3.636,0.167,19.54,108.3671,20.7,21.57,26.39,0,110.9,13.19,21.53,76.0
"2010-09-01 00:53:00",121367,3.641,113.9,5.007,0.162,19.61,108.3671,20.7,21.58,25.87,0,110.9,13.19,21.53,75.9
"2010-09-01 00:53:30",121368,3.248,112.7,2.728,0.106,19.65,108.3671,20.7,21.58,25.05,0,110.9,13.19,21.53,74.7
"2010-09-01 00:54:00",121369,3.205,107.1,3.996,0.095,19.65,108.3671,20.7,21.59,24.89,0,110.9,13.19,21.53,69.1
"2010-09-01 00:54:30",121370,2.885,105.7,2.517,0.086,19.68,108.3676,20.7,21.59,25.05,0,110.9,13.19,21.53,67.7
"2010-09-01 00:55:00",121371,3.059,97.2,5.808,0.179,19.67,108.3749,20.72,21.59,24.55,0,110.9,13.19,21.55,59.2
"2010-09-01 00:55:30",121372,2.747,102.9,2.338,0.094,19.59,108.3876,20.75,21.61,24.45,0,110.9,13.19,21.58,64.9
"2010-09-01 00:56:00",121373,2.63,104.7,4.229,0.124,19.57,108.3983,20.78,21.62,24.71,0,110.9,13.19,21.61,66.7
"2010-09-01 00:56:30",121374,2.893,109.9,3.43,0.248,19.52,108.3991,20.78,21.64,25.36,0,110.9,13.19,21.61,71.9
"2010-09-01 00:57:00",121375,3.062,108.1,3.027,0.156,19.47,108.3789,20.73,21.63,25.74,0,110.9,13.19,21.56,70.1
"2010-09-01 00:57:30",121376,2.972,106,3.761,0.109,19.58,108.3688,20.71,21.62,25.49,0,110.9,13.19,21.53,68.0
"2010-09-01 00:58:00",121377,2.826,112.1,2.62,0.086,19.53,108.3671,20.7,21.62,25.17,0,110.9,13.19,21.53,74.1
"2010-09-01 00:58:30",121378,2.671,117,2.952,0.094,19.64,108.3671,20.7,21.61,24.9,0,110.9,13.19,21.53,79.0
"2010-09-01 00:59:00",121379,2.682,118.4,1.094,0.135,19.68,108.3676,20.7,21.61,25.14,0,110.9,13.19,21.53,80.4
"2010-09-01 00:59:30",121380,2.648,114.9,2.393,0.088,19.49,108.3671,20.7,21.62,25.57,0,110.9,13.19,21.53,76.9
"2010-09-01 01:00:00",121381,2.705,105.8,2.298,0.2,19.64,108.3671,20.7,21.61,25.31,0,110.9,13.19,21.53,67.8
"2010-09-01 01:00:30",121382,2.89,102.9,2.806,0.098,19.57,108.3671,20.7,21.59,24.97,0,110.9,13.19,21.53,64.9
"2010-09-01 01:01:00",121383,2.778,99.7,1.23,0.082,19.46,108.3671,20.7,21.61,25.91,0,110.9,13.19,21.53,61.7
"2010-09-01 01:01:30",121384,2.663,99.6,4.593,0.268,19.59,108.3674,20.7,21.59,25.87,0,110.9,13.19,21.53,61.6
"2010-09-01 01:02:00",121385,3.007,98.5,2.736,0.165,19.58,108.366,20.7,21.59,25.54,0,110.9,13.19,21.52,60.5
"2010-09-01 01:02:30",121386,2.98,100.3,2.192,0.171,19.57,108.3643,20.69,21.59,25.54,0,110.9,13.19,21.52,62.3
"2010-09-01 01:03:00",121387,2.907,100,1.612,0.108,19.54,108.3632,20.69,21.57,25.34,0,110.9,13.19,21.52,62.0
"2010-09-01 01:03:30",121388,2.688,101,2.877,0.084,19.56,108.3658,20.7,21.57,25.29,0,110.9,13.19,21.52,63.0
"2010-09-01 01:04:00",121389,2.624,99.1,0.891,0.096,19.53,108.3675,20.7,21.58,25.16,0,110.9,13.19,21.53,61.1
"2010-09-01 01:04:30",121390,2.831,97.3,2.793,0.184,19.57,108.3714,20.71,21.57,25.37,0,110.9,13.19,21.54,59.3
"2010-09-01 01:05:00",121391,2.878,99.1,1.585,0.07,19.47,108.3676,20.7,21.6,25.58,0,110.9,13.19,21.53,61.1
"2010-09-01 01:05:30",121392,2.905,99.5,4.133,0.157,19.5,108.3595,20.68,21.58,25.8,0,110.9,13.19,21.51,61.5
"2010-09-01 01:06:00",121393,2.775,104.4,1.238,0.059,19.51,108.3446,20.64,21.57,26.22,0,110.9,13.19,21.47,66.4
"2010-09-01 01:06:30",121394,2.706,103.7,1.124,0.066,19.5,108.3382,20.63,21.56,26.57,0,110.9,13.19,21.45,65.7
"2010-09-01 01:07:00",121395,2.944,102.5,1.345,0.107,19.53,108.3413,20.64,21.54,26.51,0,110.9,13.19,21.46,64.5
"2010-09-01 01:07:30",121396,3.048,104.3,2.094,0.078,19.65,108.3416,20.64,21.53,26.21,0,110.9,13.19,21.46,66.3
"2010-09-01 01:08:00",121397,2.968,106.8,1.467,0.071,19.61,108.3443,20.64,21.53,25.79,0,110.9,13.2,21.47,68.8
"2010-09-01 01:08:30",121398,2.942,104.5,1.062,0.048,19.68,108.3461,20.65,21.52,25.7,0,110.9,13.2,21.47,66.5
"2010-09-01 01:09:00",121399,2.832,99.4,1.764,0.082,19.56,108.3473,20.65,21.53,25.44,0,110.9,13.2,21.47,61.4
"2010-09-01 01:09:30",121400,3.106,95.9,2.478,0.117,19.6,108.3474,20.65,21.51,26.14,0,110.9,13.2,21.48,57.9
"2010-09-01 01:10:00",121401,2.791,99.6,1.576,0.113,19.48,108.3457,20.65,21.52,26.02,0,110.9,13.2,21.47,61.6
"2010-09-01 01:10:30",121402,2.837,99.1,1.852,0.117,19.49,108.3414,20.64,21.5,25.94,0,110.9,13.2,21.46,61.1
"2010-09-01 01:11:00",121403,2.848,105.1,1.968,0.073,19.61,108.3446,20.64,21.51,25.34,0,110.9,13.2,21.47,67.1
"2010-09-01 01:11:30",121404,2.822,105.8,1.974,0.061,19.61,108.3494,20.66,21.5,25.08,0,110.9,13.2,21.48,67.8
"2010-09-01 01:12:00",121405,2.781,109.3,0.809,0.032,19.5,108.358,20.68,21.5,24.95,0,110.9,13.2,21.50,71.3
"2010-09-01 01:12:30",121406,2.746,110.6,1.006,0.06,19.38,108.3638,20.69,21.5,24.99,0,110.9,13.2,21.52,72.6
"2010-09-01 01:13:00",121407,2.928,108.1,1.065,0.075,19.53,108.3654,20.7,21.52,25.78,0,110.9,13.2,21.52,70.1
"2010-09-01 01:13:30",121408,3.017,110,2.253,0.075,19.54,108.363,20.69,21.52,25.96,0,110.9,13.2,21.52,72.0
"2010-09-01 01:14:00",121409,3.049,113.2,2.044,0.061,19.54,108.3539,20.67,21.52,26.03,0,110.9,13.2,21.49,75.2
"2010-09-01 01:14:30",121410,3.109,117.7,1.393,0.135,19.54,108.3492,20.66,21.51,26.03,0,110.9,13.2,21.48,79.7
"2010-09-01 01:15:00",121411,3.19,115.6,1.802,0.106,19.55,108.3414,20.64,21.5,26.22,0,110.9,13.2,21.46,77.6
"2010-09-01 01:15:30",121412,3.399,114.2,0.932,0.054,19.51,108.3364,20.62,21.5,26.35,0,110.9,13.2,21.45,76.2
"2010-09-01 01:16:00",121413,3.523,111.2,1.134,0.074,19.51,108.3361,20.62,21.51,26.22,0,110.9,13.2,21.45,73.2
"2010-09-01 01:16:30",121414,4.001,109.8,1.588,0.207,19.46,108.3361,20.62,21.49,26.44,0,110.8,13.2,21.45,71.8
"2010-09-01 01:17:00",121415,4.18,111.8,3.039,0.115,19.43,108.3361,20.62,21.5,26.56,0,110.8,13.2,21.45,73.8
"2010-09-01 01:17:30",121416,4.202,117.1,1.009,0.119,19.45,108.3361,20.62,21.49,26.54,0,110.8,13.2,21.45,79.1
"2010-09-01 01:18:00",121417,4.072,115.2,1.677,0.097,19.43,108.3361,20.62,21.48,26.6,0,110.8,13.2,21.45,77.2
"2010-09-01 01:18:30",121418,4.074,114.6,1.143,0.056,19.39,108.3361,20.62,21.48,26.59,0,110.8,13.2,21.45,76.6
"2010-09-01 01:19:00",121419,4.084,113.3,1.149,0.082,19.39,108.3361,20.62,21.47,26.63,0,110.8,13.2,21.45,75.3
"2010-09-01 01:19:30",121420,4.107,110.1,2.247,0.116,19.45,108.3356,20.62,21.46,26.62,0,110.8,13.2,21.44,72.1
"2010-09-01 01:20:00",121421,4.078,112.1,1.653,0.09,19.41,108.3344,20.62,21.46,26.6,0,110.8,13.2,21.44,74.1
"2010-09-01 01:20:30",121422,4.146,114.7,1.164,0.147,19.48,108.3299,20.61,21.47,26.53,0,110.8,13.2,21.43,76.7
"2010-09-01 01:21:00",121423,4.227,116.7,1.663,0.077,19.49,108.3204,20.58,21.44,26.35,0,110.8,13.2,21.41,78.7
"2010-09-01 01:21:30",121424,4.333,116.8,0.899,0.07,19.52,108.3069,20.55,21.45,26.35,0,110.8,13.2,21.37,78.8
"2010-09-01 01:22:00",121425,4.311,118.1,0.815,0.117,19.47,108.303,20.54,21.45,26.15,0,110.8,13.2,21.36,80.1
"2010-09-01 01:22:30",121426,4.148,118.4,0.997,0.086,19.52,108.3024,20.54,21.44,26.1,0,110.8,13.2,21.36,80.4
"2010-09-01 01:23:00",121427,4.127,117.1,1.475,0.055,19.52,108.3024,20.54,21.43,26.07,0,110.8,13.2,21.36,79.1
"2010-09-01 01:23:30",121428,4.115,115.3,1.255,0.066,19.5,108.3024,20.54,21.43,26.15,0,110.8,13.2,21.36,77.3
"2010-09-01 01:24:00",121429,4.016,114,0.888,0.034,19.48,108.3024,20.54,21.43,26.28,0,110.8,13.2,21.36,76.0
"2010-09-01 01:24:30",121430,3.925,112.8,0.687,0.082,19.55,108.3024,20.54,21.41,26.39,0,110.8,13.2,21.36,74.8
"2010-09-01 01:25:00",121431,4.039,113.1,0.79,0.043,19.48,108.3024,20.54,21.42,26.51,0,110.8,13.2,21.36,75.1
"2010-09-01 01:25:30",121432,4.014,112.9,1.154,0.045,19.52,108.3024,20.54,21.41,26.39,0,110.8,13.2,21.36,74.9
"2010-09-01 01:26:00",121433,4.113,116.2,0.698,0.085,19.57,108.3024,20.54,21.4,26.24,0,110.8,13.2,21.36,78.2
"2010-09-01 01:26:30",121434,4.004,116.7,0.662,0.057,19.62,108.3018,20.53,21.4,26.14,0,110.8,13.21,21.36,78.7
"2010-09-01 01:27:00",121435,4.236,116.1,0.933,0.087,19.5,108.2985,20.53,21.4,26.15,0,110.8,13.21,21.35,78.1
"2010-09-01 01:27:30",121436,4.358,117,0.851,0.086,19.6,108.2895,20.5,21.4,26.08,0,110.8,13.21,21.33,79.0
"2010-09-01 01:28:00",121437,4.446,118.4,0.908,0.081,19.6,108.2833,20.49,21.39,25.94,0,110.8,13.21,21.31,80.4
"2010-09-01 01:28:30",121438,4.721,120,0.553,0.043,19.57,108.2791,20.48,21.38,25.84,0,110.8,13.21,21.30,82.0
"2010-09-01 01:29:00",121439,4.718,119.3,0.484,0.068,19.56,108.2701,20.45,21.39,25.86,0,110.8,13.21,21.28,81.3
"2010-09-01 01:29:30",121440,4.867,120.9,1.08,0.12,19.53,108.2686,20.45,21.38,25.86,0,110.8,13.21,21.27,82.9
"2010-09-01 01:30:00",121441,5.131,122.5,0.679,0.1,19.58,108.2686,20.45,21.37,25.33,0,110.8,13.21,21.27,84.5
"2010-09-01 01:30:30",121442,5.102,121.9,1.044,0.079,19.62,108.2686,20.45,21.37,25.22,0,110.8,13.21,21.27,83.9
"2010-09-01 01:31:00",121443,5.077,121.1,0.983,0.072,19.58,108.2686,20.45,21.36,25.23,0,110.8,13.21,21.27,83.1
"2010-09-01 01:31:30",121444,5.116,122.3,0.701,0.115,19.57,108.2686,20.45,21.36,25.11,0,110.8,13.21,21.27,84.3
"2010-09-01 01:32:00",121445,4.825,122.7,0.028,0.072,19.61,108.2686,20.45,21.35,25.26,0,110.8,13.21,21.27,84.7
"2010-09-01 01:32:30",121446,4.682,121.7,1.03,0.067,19.61,108.2686,20.45,21.34,25.11,0,110.8,13.21,21.27,83.7
"2010-09-01 01:33:00",121447,4.604,121.4,0.45,0.036,19.63,108.2689,20.45,21.34,24.95,0,110.8,13.21,21.27,83.4
"2010-09-01 01:33:30",121448,4.612,121.4,0.724,0.026,19.63,108.2686,20.45,21.34,24.9,0,110.8,13.21,21.27,83.4
"2010-09-01 01:34:00",121449,4.682,120.1,0.859,0.062,19.61,108.2696,20.45,21.34,24.6,0,110.8,13.21,21.27,82.1
"2010-09-01 01:34:30",121450,4.745,118.8,0.669,0.051,19.6,108.2699,20.45,21.35,24.5,0,110.8,13.21,21.28,80.8
"2010-09-01 01:35:00",121451,4.825,120.2,0.588,0.059,19.55,108.2702,20.45,21.36,24.58,0,110.8,13.21,21.28,82.2
"2010-09-01 01:35:30",121452,4.91,121.2,0.819,0.038,19.53,108.2717,20.46,21.37,24.48,0,110.8,13.2,21.28,83.2
"2010-09-01 01:36:00",121453,4.961,121.3,0.94,0.079,19.59,108.2723,20.46,21.36,24.42,0,110.8,13.2,21.28,83.3
"2010-09-01 01:36:30",121454,4.979,122,0.865,0.099,19.58,108.2802,20.48,21.37,24.63,0,110.8,13.2,21.30,84.0
"2010-09-01 01:37:00",121455,4.902,123.5,1.233,0.045,19.59,108.2833,20.49,21.37,24.47,0,110.8,13.2,21.31,85.5
"2010-09-01 01:37:30",121456,5.001,124.1,1.299,0.11,19.57,108.2866,20.5,21.37,24.35,0,110.8,13.2,21.32,86.1
"2010-09-01 01:38:00",121457,5.006,123.9,0.721,0.069,19.58,108.2897,20.5,21.37,24.39,0,110.8,13.2,21.33,85.9
"2010-09-01 01:38:30",121458,4.91,123.2,1.011,0.086,19.63,108.2921,20.51,21.36,24.44,0,110.8,13.2,21.33,85.2
"2010-09-01 01:39:00",121459,4.92,122.7,0.909,0.049,19.6,108.2933,20.51,21.37,24.41,0,110.8,13.2,21.34,84.7
"2010-09-01 01:39:30",121460,5.116,121.7,1.594,0.085,19.58,108.2943,20.51,21.38,24.39,0,110.8,13.2,21.34,83.7
"2010-09-01 01:40:00",121461,5.384,117.9,0.997,0.141,19.45,108.2873,20.5,21.36,24.42,0,110.8,13.21,21.32,79.9
"2010-09-01 01:40:30",121462,5.062,121.2,0.96,0.061,19.56,108.2724,20.46,21.35,24.52,0,110.8,13.21,21.28,83.2
"2010-09-01 01:41:00",121463,5.209,120.8,1.2,0.177,19.53,108.2657,20.44,21.35,24.6,0,110.8,13.21,21.26,82.8
"2010-09-01 01:41:30",121464,5.617,124,1.295,0.096,19.48,108.2629,20.43,21.34,24.47,0,110.8,13.21,21.26,86.0
"2010-09-01 01:42:00",121465,5.46,122.6,1.322,0.083,19.36,108.2644,20.44,21.34,24.52,0,110.8,13.21,21.26,84.6
"2010-09-01 01:42:30",121466,5.531,123.3,2.099,0.164,19.49,108.2644,20.44,21.33,24.65,0,110.8,13.21,21.26,85.3
"2010-09-01 01:43:00",121467,5.227,122.8,1.289,0.097,19.44,108.2618,20.43,21.3,24.73,0,110.8,13.21,21.25,84.8
"2010-09-01 01:43:30",121468,4.926,121.5,2.201,0.218,19.49,108.2488,20.4,21.3,24.76,0,110.8,13.22,21.22,83.5
"2010-09-01 01:44:00",121469,4.866,119.1,1.306,0.167,19.42,108.2378,20.37,21.28,24.85,0,110.8,13.22,21.19,81.1
"2010-09-01 01:44:30",121470,5.432,119.6,1.909,0.055,19.45,108.2365,20.37,21.28,24.64,0,110.8,13.22,21.19,81.6
"2010-09-01 01:45:00",121471,5.407,119.1,1.525,0.195,19.37,108.2362,20.37,21.26,24.55,0,110.8,13.22,21.19,81.1
"2010-09-01 01:45:30",121472,5.166,118.4,1.446,0.131,19.4,108.2365,20.37,21.25,24.6,0,110.8,13.22,21.19,80.4
"2010-09-01 01:46:00",121473,5.184,119.4,1.421,0.097,19.36,108.2371,20.37,21.23,24.71,0,110.8,13.22,21.19,81.4
"2010-09-01 01:46:30",121474,5.196,117.5,2.435,0.088,19.41,108.2374,20.37,21.24,24.78,0,110.8,13.22,21.19,79.5
"2010-09-01 01:47:00",121475,5.103,119.4,1.773,0.143,19.41,108.2259,20.34,21.22,24.79,0,110.8,13.22,21.16,81.4
"2010-09-01 01:47:30",121476,5.155,117.7,1.674,0.18,19.42,108.2132,20.31,21.21,24.93,0,110.8,13.22,21.13,79.7
"2010-09-01 01:48:00",121477,5.629,122.7,1.795,0.147,19.36,108.2095,20.3,21.22,24.72,0,110.8,13.22,21.12,84.7
"2010-09-01 01:48:30",121478,5.634,123.4,1.413,0.11,19.42,108.2048,20.28,21.19,24.71,0,110.8,13.22,21.11,85.4
"2010-09-01 01:49:00",121479,5.476,120.9,1.937,0.132,19.42,108.2039,20.28,21.2,24.87,0,110.8,13.22,21.11,82.9